Regional Weather Roundup
Issued by NWS Wakefield, VA

Home | Current Version | Previous Version | Text Only | Print | Product List | Glossary On
Versions: 1 2 3 4 5 6 7 8 9 10 11 12 13 14 15 16 17 18 19 20 21 22 23 24 25 26 27 28 29 30 31 32 33 34 35 36 37 38 39 40 41 42 43 44 45 46 47 48 49 50
659
ASUS41 KAKQ 232114
RWRAKQ

REGIONAL WEATHER ROUNDUP
NATIONAL WEATHER SERVICE WAKEFIELD VA
400 PM EST TUE JAN 23 2018

Note: "fair" indicates few or no clouds below 12,000 feet with no
significant weather and/or obstructions to visibility. * = Denotes
station may not report precipitation (e.g., rain,snow,etc.),
thunder or fog.

VAZ042-051-052>054-056-232200-
NORTHERN VIRGINIA

CITY           SKY/WX    TMP DP  RH WIND       PRES   REMARKS
WASH NATIONAL  FAIR      60  38  43 NW18G32   29.66R
DULLES         FAIR      56  32  40 NW26G36   29.67R
FORT BELVOIR   FAIR      60  39  45 NW10G26   29.66R
QUANTICO       MOSUNNY   63  41  44 N14G21    29.66R
FREDERICKSBRG* FAIR      67  35  30 W20G25    29.64R
STAFFORD*      FAIR      66  37  33 NW18G28   29.69R
WARRENTON      FAIR      62  28  28 W15G26    29.67R
CULPEPER*      FAIR      62  31  31 W10       29.69R
MANASSAS*      FAIR      60  35  39 W18G25    29.68R
LEESBURG*      FAIR      55  36  47 NW22G30   29.70R
WINCHESTER     FAIR      50  28  43 W17G30    29.73
FRONT ROYAL*   FAIR      52  32  46 W13G21    29.69R
LURAY*         FAIR      54  28  37 W18G25    29.72R
$$

VAZ048-049-060>072-079>083-232200-
CENTRAL AND SOUTH CENTRAL VIRGINIA

CITY           SKY/WX    TMP DP  RH WIND       PRES   REMARKS
RICHMOND       FAIR      69  46  43 W18G28    29.64R
CHESTERFIELD*  NOT AVBL
PETERSBURG*    NOT AVBL
HANOVER        FAIR      68  36  30 W18G29    29.67R
TAPPAHANNOCK*  FAIR      70  46  42 W13G26    29.63R
QUINTON*       FAIR      71  41  34 W9G24     29.62R
CHARLOTTSVILLE FAIR      61  30  31 VRB3      29.70R
GORDONSVILLE*  FAIR      61  32  34 W7G20     29.69R
ORANGE*        FAIR      61  32  33 NW17G25   29.68R
LOUISA*        FAIR      64  28  24 W14G25    29.71R
BUMPASS*       FAIR      66  26  21 W8G24     29.65R
FARMVILLE*     FAIR      66  25  21 W8G18     29.69R
CREWE*         FAIR      65  34  31 W12G24    29.69R
FORT PICKETT*  FAIR      66  39  37 W20G33    29.68R
CHASE CITY*    FAIR      64  35  33 W10G22    29.71R
CLARKSVILLE*   FAIR      68  34  28 SW10G21   29.69R
SOUTH HILL*    FAIR      69  37  31 W14G21    29.73R
LAWRENCEVILLE* FAIR      69  35  28 SW16      29.67R
EMPORIA*       FAIR      68  34  28 SW22G30   29.69R
$$

VAZ088>098-232200-
SOUTHEAST VIRGINIA

CITY           SKY/WX    TMP DP  RH WIND       PRES   REMARKS
NORFOLK        FAIR      74  50  42 SW18G30   29.63R
VIRGINIA BEACH FAIR      72  49  44 SW26G35   29.63R
NORFOLK NAVAL  FAIR      73  50  44 W12       29.65R
WEST POINT*    FAIR      69  38  32 W20       29.63R
SALUDA*        FAIR      72  42  34 SW10G21   29.61R
NEWPORT NEWS   FAIR      71  45  39 W21G29    29.63R
LANGLEY AFB    MOSUNNY   72  47  42 SW20G28   29.63R
FORT EUSTIS    FAIR      72  45  38 W9G21     29.61R
WILLIAMSBURG*  FAIR      75  48  38 W20G25    29.64R
HR EXEC AP*    FAIR      73  47  39 SW13G30   29.65
FRANKLIN*      FAIR      73  38  28 W14G25    29.66R
US460-WAKEFLD  FAIR      71  40  32 W15G28    29.64R
$$

VAZ020-022-025-037-045-232200-
WEST CENTRAL AND SOUTHWEST VIRGINIA

CITY           SKY/WX    TMP DP  RH WIND       PRES   REMARKS
STAUNTON*      FAIR      52  28  39 W15G23    29.76R
WAYNESBORO*    FAIR      54  30  39 W9G24     29.72R
HOT SPRINGS VA FAIR      40  20  44 W29G37    29.73R
LYNCHBURG      FAIR      59  26  28 W10G21    29.73R
DANVILLE       FAIR      63  33  32 W14G23    29.73R
SOUTH BOSTON*  FAIR      65  32  28 NW13G23   29.72R
MARTINSVILLE   FAIR      60  23  24 NW15G21   29.80R
ROANOKE        FAIR      57  26  30 NW20G26   29.78R
BLACKSBURG     FAIR      51  28  40 W10G17    29.81R
DUBLIN*        FAIR      51  27  39 W20       29.82R
MARION*        PTSUNNY   45  24  44 W21G31    29.86R
HILLSVILLE*    FAIR      45  26  46 W18G25    29.81R
RICHLANDS*     CLOUDY    43  27  52 W15G21    29.86R
WISE*          CLOUDY    45  28  53 W8        29.89R
ABINGDON*      FAIR      48  28  45 W18       29.89R
$$

MDZ021>025-VAZ099-100-232200-
SOUTHERN MARYLAND AND THE DELMARVA PENINSULA

CITY           SKY/WX    TMP DP  RH WIND       PRES   REMARKS
PATUXENT RIVER FAIR      66  49  54 W16G23    29.61R
BAY BRIDGE APT FAIR      55  45  67 NW12      29.65R
LEONARDTOWN    PTSUNNY   64  46  52 W10G18    29.64R
DOVER          LGT RAIN  58  58 100 NW7       29.60R
GEORGETOWN     PTSUNNY   63  55  75 NW10      29.60R
EASTON         PTSUNNY   55  52  88 N9G20     29.68R
CAMBRIDGE      MOSUNNY   61  54  77 NW15G22   29.62R
SALISBURY      PTSUNNY   66  59  78 W12       29.58R
OCEAN CITY     CLOUDY    50  50 100 S9        29.60R FOG
WALLOPS ISLAND FAIR      51  50  96 S15       29.61R
ACCOMACK*      FAIR      70  57  64 SW10G18   29.60S
$$

NCZ012>017-030>032-232200-
NORTH CENTRAL AND EASTERN NORTH CAROLINA

CITY           SKY/WX    TMP DP  RH WIND       PRES   REMARKS
ROANOKE RAPIDS FAIR      70  37  30 SW28G37   29.69R
RALEIGH        FAIR      66  25  21 SW18G30   29.74R
ELIZABETH CITY FAIR      69  68  96 SW12      29.68R
AHOSKIE*       FAIR      69  43  39 SW5       29.68R
EDENTON*       FAIR      71  57  62 W9G16     29.70S
CURRITUCK*     PTSUNNY   67  59  76 SW9       29.68R
KILL DEVIL HLS FAIR      62  62 100 S7        29.69R
MANTEO         FAIR      56  54  91 S18       29.71S
CAPE HATTERAS  NOT AVBL
TARBORO*       NOT AVBL
GOLDSBORO      FAIR      72  50  47 W16G30    29.71S
WASHINGTON     FAIR      74  55  51 W13G29    29.70S
GREENVILLE     FAIR      72  52  49 W18G28    29.75R
NEW BERN       FAIR      72  56  57 SW14G26   29.73F
WILMINGTON     FAIR      69  60  73 SW16G24   29.77F
$$

VAZ048-232200-
ELSEWHERE

CITY           SKY/WX    TMP DP  RH WIND       PRES   REMARKS
HARRISBURG PA  FAIR      51  31  46 W21G32    29.64R
BALTIMORE      FAIR      57  39  51 NW20G26   29.65R
ANNAPOLIS      FAIR      58  44  60 NW14G23   29.64R
ANDREWS AFB    FAIR      58  37  47 NW20G29   29.65R
PHILADELPHIA   PTSUNNY   59  44  57 NW16G25   29.61R
HENDERSON NC   FAIR      65  28  24 SW13G26   29.71R
GREENSBORO     FAIR      62  30  29 NW20      29.75R
ROCKY MOUNT    FAIR      70  42  36 SW16G25   29.71R
$$

VAZ100-232200-
MARINE

STATION/POSITION TIME  TEMP    WIND        PRES    WAVE   SWELL
                       AIR SEA DIR/SP/G            HT/PER HT/PER
                 (UTC) (F)     (DEG/KT/KT) (MB)    (FT/S) (FT/S)
BRANDYWINE LGT   2042   55     330/  6/  8 1002.1R
CAPE MAY NJ      2048   47 37   90/  1/  2 1001.5R
LEWES DE         2048      36  330/  5/  6 1001.8R
15NM E FENWICK I 2050   46 39  190/ 17/ 21 1001.7F   7/ 7
OCEAN-CITY-INLET 2048   47 38  230/ 15/ 19 1002.5R
WACHAPREAGUE VA  2048   55 47  210/  9/ 11 1002.7S
THOMAS POINT MD  2100   57 35  300/ 19/ 21   N/A
GOOSES REEF MD   2100   44 35  350/ 10/ 12 1004.0    1/ 2
COVE POINT MD    2048          350/ 20/ 23 1003.6R
SOLOMONS ISLAND  2048   65 36  280/ 12/ 18 1002.2R
BISHOPS HEAD MD  2048   54 43  230/  7/  8 1002.4R
PINEY POINT MD   2048          320/ 17/ 17   N/A
POTOMAC MD       2100   49 36   20/ 10/ 14 1001.7    2/ 3
CAMBRIDGE MD     2048   56 35              1003.7R
LEWISETTA VA     2048   69 39  290/ 12/ 16 1002.3R
RAPPAHANNOCK LGT 2048          200/ 17/ 20 1003.1R
STINGRAY PT      2100   64 36  270/ 16/ 21 1005.5    2/ 2
YORK RVR RNG VA  2048   67     260/ 26/ 32 1003.0R
YORKTOWN VA      2048   72 38  250/ 15/ 22 1002.5R
DOMINION TERM VA 2048   62     260/ 14/ 19 1003.5R
KIPTOPEKE VA     2048      38  220/ 10/ 13   N/A
CAPE HENRY VA    2048   72     230/ 15/ 25   N/A
WILLOUBY STN VA  2048          240/ 26/ 29 1002.5S
S CRANEY ISL VA  2048   72     230/ 10/ 21 1003.1R
CAPE HENRY BUOY  2100      42                N/A     5/ 8
1ST LANDING BUOY 2100   60 39  250/ 16/ 17 1003.3    2/ 3
CAPE CHARLES BUO 2051      40                N/A     4/ 8
64NM E OF VA BCH 2050   59 56  210/ 21/ 25 1005.2F   9/ 8
DUCK PIER NC     2048   62 42  200/ 16/ 19 1004.5F
44100 DUCK FRF   2045      41                N/A     6/ 8
44056 DUCK FRF   2030      42                N/A     4/ 8
OREGON INLET NC  2042   50 46  200/ 17/ 19 1006.4F
HATTERAS NC      2048   62 55  230/ 13/ 22 1007.5F
DIAMOND SHLS NC  2050   68     230/ 23/ 31   N/A    10/ 8
CAPE LOOKOUT NC  2100          220/ 15/ 19 1008.7F
$$




USA.gov is the U.S. government's official web portal to all federal, state and local government web resources and services.